Change the Weather History Date:

Tuesday, March 12, 2013

  Actual Average Record
Temperature  
Mean Temperature 27 °F -  
Max Temperature 33 °F 34 °F 63 °F (1990)
Min Temperature 21 °F 10 °F -20 °F (1960)
Degree Days  
Heating Degree Days 38    
Moisture  
Dew Point 23 °F    
Average Humidity 83    
Maximum Humidity 93    
Minimum Humidity 74    
Precipitation  
Precipitation 0.10 in - - ()
Sea Level Pressure  
Sea Level Pressure 29.68 in    
Wind  
Wind Speed 10 mph (West)    
Max Wind Speed 16 mph    
Max Gust Speed 24 mph    
Visibility 4 miles    
Events Rain , Snow    
Averages and records for this station are not official NWS values.
T = Trace of Precipitation, MM = Missing Value Source: NWS Daily Summary

Daily Weather History Graph

Daily Weather History Graph

Search for Another Location

Airport or City:

Trip Planner

Search our weather history database for the weather conditions in past years. The results will help you decide how hot, cold, wet, or windy it might be!

Date:

Astronomy

Mar. 12, 2013 Rise Set
Actual Time 7:56 AM EDT 7:41 PM EDT
Civil Twilight 7:27 AM EDT 8:11 PM EDT
Nautical Twilight 6:53 AM EDT 8:45 PM EDT
Astronomical Twilight 6:18 AM EDT 9:20 PM EDT
Moon 7:58 AM EDT (3/12) 9:02 PM EDT (3/12)
Length of Visible Light 12h 43m
Length of Day
11h 44m
New Moon, 1% of the Moon is Illuminated
Mar 12
New Moon
Mar 19
First Quarter
Mar 27
Full
Apr 3
Last Quarter
Apr 10
New

Hourly Weather History & Observations

Time (EDT) Temp. Windchill Dew Point Humidity Pressure Visibility Wind Dir Wind Speed Gust Speed Precip Events Conditions
12:01 AM 33.8 °F 29.6 °F 30.2 °F 87% 29.44 in 1.8 mi WSW 4.6 mph - 0.01 in Snow Light Snow
12:14 AM 33.8 °F 27.7 °F 30.2 °F 87% 29.44 in 2.0 mi WSW 6.9 mph - 0.02 in Snow Light Snow
12:21 AM 33.8 °F 27.0 °F 30.2 °F 87% 29.44 in 1.8 mi West 8.1 mph - 0.02 in Snow Light Snow
12:54 AM 33.1 °F 26.1 °F 30.9 °F 92% 29.47 in 1.0 mi WSW 8.1 mph - 0.05 in Snow Light Snow
1:01 AM 33.8 °F 25.8 °F 30.2 °F 87% 29.45 in 1.0 mi West 10.4 mph - 0.01 in Snow Light Snow
1:29 AM 33.8 °F 25.8 °F 30.2 °F 87% 29.47 in 1.5 mi West 10.4 mph - 0.02 in Snow Light Snow
1:36 AM 33.8 °F 23.9 °F 30.2 °F 87% 29.47 in 1.8 mi West 15.0 mph - 0.02 in Snow Light Snow
1:50 AM 32.0 °F 22.1 °F 28.4 °F 87% 29.48 in 1.5 mi West 13.8 mph 21.9 mph 0.02 in Snow Light Snow
1:54 AM 32.0 °F 21.2 °F 28.9 °F 88% 29.50 in 1.5 mi West 16.1 mph 23.0 mph 0.02 in Snow Light Snow
2:23 AM 32.0 °F 22.1 °F 28.4 °F 87% 29.51 in 1.5 mi West 13.8 mph 23.0 mph 0.00 in Snow Light Snow
2:54 AM 30.0 °F 19.1 °F 27.0 °F 88% 29.55 in 2.0 mi West 15.0 mph 23.0 mph 0.00 in Snow Light Snow
3:37 AM 30.2 °F 20.8 °F 26.6 °F 86% 29.56 in 10.0 mi West 11.5 mph - 0.00 in   Overcast
3:54 AM 30.0 °F 18.7 °F 25.0 °F 82% 29.58 in 10.0 mi West 16.1 mph 24.2 mph 0.00 in   Overcast
4:54 AM 28.9 °F 18.6 °F 24.1 °F 82% 29.61 in 10.0 mi West 12.7 mph 19.6 mph N/A   Overcast
5:54 AM 28.9 °F 20.4 °F 25.0 °F 85% 29.63 in 10.0 mi West 9.2 mph - N/A   Overcast
6:29 AM 28.4 °F 19.7 °F 24.8 °F 86% 29.61 in 1.5 mi West 9.2 mph - 0.00 in Snow Light Snow
6:42 AM 28.4 °F 19.1 °F 24.8 °F 86% 29.62 in 2.0 mi West 10.4 mph - 0.00 in Snow Light Snow
6:50 AM 28.4 °F 18.5 °F 24.8 °F 86% 29.62 in 7.0 mi West 11.5 mph - 0.00 in   Overcast
6:54 AM 28.0 °F 19.3 °F 25.0 °F 88% 29.66 in 8.0 mi West 9.2 mph - 0.00 in   Overcast
7:01 AM 28.4 °F 19.1 °F 24.8 °F 86% 29.63 in 6.0 mi West 10.4 mph - N/A   Overcast
7:09 AM 28.4 °F 19.7 °F 24.8 °F 86% 29.63 in 4.0 mi West 9.2 mph - N/A   Overcast
7:25 AM 28.4 °F 19.1 °F 24.8 °F 86% 29.64 in 10.0 mi West 10.4 mph - 0.00 in   Overcast
7:54 AM 28.0 °F 19.3 °F 24.1 °F 85% 29.68 in 6.0 mi West 9.2 mph - 0.00 in   Overcast
8:48 AM 26.6 °F 19.1 °F 24.8 °F 93% 29.67 in 3.0 mi WSW 6.9 mph - N/A   Overcast
8:54 AM 27.0 °F 18.7 °F 24.1 °F 89% 29.70 in 3.0 mi WSW 8.1 mph - N/A   Overcast
8:58 AM 26.6 °F 17.5 °F 24.8 °F 93% 29.68 in 3.0 mi WSW 9.2 mph - 0.00 in Rain Light Freezing Rain
9:07 AM 26.6 °F 17.5 °F 24.8 °F 93% 29.68 in 3.0 mi WSW 9.2 mph - 0.00 in Rain Light Freezing Rain
9:19 AM 26.6 °F 18.2 °F 24.8 °F 93% 29.68 in 4.0 mi West 8.1 mph - 0.00 in Snow Light Snow
9:24 AM 26.6 °F 18.2 °F 24.8 °F 93% 29.69 in 2.5 mi West 8.1 mph - 0.00 in Snow Light Snow
9:29 AM 26.6 °F 16.8 °F 24.8 °F 93% 29.69 in 0.8 mi WNW 10.4 mph - 0.01 in Snow Light Snow
9:45 AM 26.6 °F 15.7 °F 23.0 °F 86% 29.69 in 1.8 mi WNW 12.7 mph - 0.02 in Snow Light Snow
9:48 AM 26.6 °F 15.7 °F 21.2 °F 80% 29.69 in 3.0 mi WNW 12.7 mph - 0.02 in Snow Light Snow
9:54 AM 26.1 °F 16.2 °F 21.9 °F 84% 29.72 in 4.0 mi WNW 10.4 mph - 0.02 in Snow Light Snow
10:01 AM 26.6 °F 14.7 °F 21.2 °F 80% 29.69 in 3.0 mi WNW 15.0 mph - 0.00 in Snow Light Snow
10:10 AM 26.6 °F 17.5 °F 21.2 °F 80% 29.69 in 2.0 mi WNW 9.2 mph - 0.00 in Snow Light Snow
10:54 AM 26.1 °F 16.2 °F 21.9 °F 84% 29.73 in 2.5 mi West 10.4 mph - 0.00 in Snow Light Snow
11:32 AM 26.6 °F 16.8 °F 21.2 °F 80% 29.71 in 1.5 mi WNW 10.4 mph - 0.00 in Snow Light Snow
11:47 AM 26.6 °F 17.5 °F 21.2 °F 80% 29.71 in 0.8 mi WNW 9.2 mph - 0.00 in Snow Light Snow
11:54 AM 26.1 °F 16.2 °F 21.9 °F 84% 29.75 in 1.0 mi West 10.4 mph - 0.01 in Snow Light Snow
12:05 PM 26.6 °F 16.2 °F 21.2 °F 80% 29.72 in 1.2 mi West 11.5 mph - 0.00 in Snow Light Snow
12:13 PM 26.6 °F 16.2 °F 21.2 °F 80% 29.72 in 1.8 mi West 11.5 mph - 0.00 in Snow Light Snow
12:20 PM 26.6 °F 16.8 °F 21.2 °F 80% 29.72 in 2.5 mi West 10.4 mph - 0.00 in Snow Light Snow
12:30 PM 26.6 °F 17.5 °F 21.2 °F 80% 29.72 in 3.0 mi West 9.2 mph - 0.00 in Snow Light Snow
12:41 PM 26.6 °F 18.2 °F 21.2 °F 80% 29.72 in 1.8 mi West 8.1 mph - 0.00 in Snow Light Snow
12:51 PM 26.6 °F 17.5 °F 21.2 °F 80% 29.73 in 1.0 mi WSW 9.2 mph - 0.00 in Snow Light Snow
12:54 PM 26.1 °F 16.8 °F 21.0 °F 81% 29.76 in 1.0 mi WSW 9.2 mph - 0.00 in Snow Light Snow
1:14 PM 24.8 °F 16.1 °F 19.4 °F 80% 29.73 in 2.0 mi West 8.1 mph - 0.00 in Snow Light Snow
1:32 PM 26.6 °F 21.2 °F 19.4 °F 74% 29.74 in 2.0 mi WNW 4.6 mph - 0.00 in Snow Light Snow
1:42 PM 26.6 °F 17.5 °F 19.4 °F 74% 29.73 in 3.0 mi West 9.2 mph - 0.00 in Snow Light Snow
1:54 PM 26.1 °F 16.8 °F 19.9 °F 78% 29.76 in 4.0 mi West 9.2 mph - 0.00 in Snow Light Snow
2:54 PM 26.1 °F 15.6 °F 19.0 °F 75% 29.77 in 4.0 mi West 11.5 mph - 0.00 in Snow Light Snow
3:13 PM 26.6 °F 18.2 °F 19.4 °F 74% 29.74 in 2.0 mi West 8.1 mph - 0.00 in Snow Light Snow
3:31 PM 26.6 °F 19.1 °F 19.4 °F 74% 29.75 in 4.0 mi Variable 6.9 mph - 0.00 in Snow Light Snow
3:54 PM 27.0 °F 17.3 °F 19.9 °F 75% 29.78 in 7.0 mi West 10.4 mph 17.3 mph 0.00 in Snow Light Snow
4:28 PM 26.6 °F 16.8 °F 19.4 °F 74% 29.76 in 2.0 mi West 10.4 mph 19.6 mph 0.00 in Snow Light Snow
4:39 PM 26.6 °F 18.2 °F 19.4 °F 74% 29.76 in 1.0 mi West 8.1 mph - 0.00 in Snow Light Snow
4:49 PM 26.6 °F 19.1 °F 21.2 °F 80% 29.76 in 0.8 mi West 6.9 mph - 0.00 in Snow Light Snow
4:54 PM 26.1 °F 17.6 °F 21.0 °F 81% 29.79 in 0.8 mi West 8.1 mph - 0.00 in Snow Light Snow
5:02 PM 26.6 °F 16.8 °F 21.2 °F 80% 29.76 in 1.0 mi West 10.4 mph - 0.00 in Snow Light Snow
5:22 PM 26.6 °F 16.8 °F 21.2 °F 80% 29.77 in 0.5 mi West 10.4 mph - 0.00 in Snow Snow
5:40 PM 26.6 °F 15.7 °F 19.4 °F 74% 29.77 in 2.0 mi West 12.7 mph - 0.00 in Snow Light Snow
5:54 PM 26.1 °F 15.0 °F 19.0 °F 75% 29.81 in 3.0 mi West 12.7 mph - 0.00 in Snow Light Snow
6:54 PM 25.0 °F 15.5 °F 18.0 °F 75% 29.82 in 10.0 mi West 9.2 mph - 0.00 in   Overcast
7:54 PM 24.1 °F 16.0 °F 18.0 °F 77% 29.83 in 10.0 mi WNW 6.9 mph - N/A   Overcast
8:54 PM 24.1 °F 18.2 °F 19.0 °F 81% 29.84 in 10.0 mi NW 4.6 mph - 0.00 in   Overcast
9:26 PM 24.8 °F 16.9 °F 19.4 °F 80% 29.82 in 4.0 mi NW 6.9 mph - 0.00 in Snow Light Snow
9:33 PM 24.8 °F 14.0 °F 19.4 °F 80% 29.82 in 5.0 mi NW 11.5 mph - 0.00 in Snow Light Snow
9:54 PM 23.0 °F 13.1 °F 17.1 °F 78% 29.86 in 6.0 mi NNW 9.2 mph - 0.00 in Snow Light Snow
10:54 PM 21.9 °F 11.7 °F 17.1 °F 82% 29.87 in 10.0 mi NW 9.2 mph - 0.00 in   Overcast
11:54 PM 21.0 °F 13.4 °F 15.1 °F 78% 29.86 in 10.0 mi WNW 5.8 mph - 0.00 in   Overcast